Flag for Canada Weather past 2 weeks in Churchill, Manitoba, Canada

Now
-11 °F

Snow flurries. Partly sunny.


Feels Like: -37 °F
Forecast: N/A
Wind: 20 mph from Northwest

Location: Churchill

Current Time: Dec 28, 2014 at 2:50:35 PM

Latest Report: Dec 28, 2014 at 2:00 PM


Visibility: 6 mi

Pressure: 30.19 "Hg

Humidity: 76%

Dew point: -17 °F

Location of ChurchillLocation

Historic Weather in Churchill — Graph

°F

Churchill temperature yesterday

Maximum temperature yesterday: -2 °F (at 12:00 AM)
Minimum temperature yesterday: -15 °F (at 7:00 PM)
Average temperature yesterday: -7 °F

Past Weeks' High & Low Weather Summary

 TemperatureHumidityPressure
High21 °F (Dec 22, 8:00 AM)100% (Dec 21, 12:00 AM)30.44 "Hg (Dec 21, 12:00 AM)
Low-17 °F (Dec 28, 12:00 AM)69% (Dec 28, 7:00 AM)29.63 "Hg (Dec 24, 10:50 PM)
Average6 °F87%30.03 "Hg
* Reported Dec 13 1:00 PM — Dec 28 1:00 PM, Churchill, Weather by CustomWeather, © 2014

Note: Actual official high and low records may vary slightly from our data, if they occured in-between our weather recording intervals... More about our weather records

Advertising

Churchill weather history for previous 24 hours

 ConditionsComfort  
Time TempWeatherWind HumidityBarometerVisibility
1:00 PM
Dec 28
-11 °FSnow flurries. Partly sunny.18 mph84%30.19 "Hg4 mi
12:00 PM-11 °FSnow flurries. Scattered clouds.21 mph76%30.18 "Hg4 mi
11:00 AM-13 °FSnow flurries. Partly sunny.22 mph76%30.18 "Hg5 mi
10:00 AM-13 °FSnow flurries. Partly sunny.22 mph76%30.18 "Hg8 mi
9:00 AM-13 °FSnow flurries. Passing clouds.21 mph76%30.17 "Hg12 mi
8:00 AM-15 °FSnow flurries. Low level haze.20 mph76%30.16 "Hg12 mi
7:00 AM-15 °FSnow flurries. Clear.18 mph69%30.16 "Hg8 mi
6:00 AM-17 °FSnow flurries. Clear.20 mph76%30.15 "Hg5 mi
5:00 AM-17 °FSnow flurries. Clear.20 mph76%30.15 "Hg3 mi
4:00 AM-17 °FSnow flurries. Clear.20 mph76%30.14 "Hg4 mi
2:00 AM-17 °FSnow flurries. Clear.21 mph76%30.13 "Hg5 mi
1:00 AM-17 °FSnow flurries. Clear.21 mph76%30.11 "Hg5 mi
12:00 AM-17 °FSnow flurries. Passing clouds.21 mph76%30.10 "Hg5 mi
11:00 PM
Dec 27
-15 °FSnow flurries. Passing clouds.20 mph76%30.10 "Hg5 mi
10:00 PM-15 °FSnow flurries. Passing clouds.18 mph76%30.10 "Hg5 mi
9:00 PM-15 °FSnow flurries. Passing clouds.20 mph76%30.10 "Hg4 mi
8:00 PM-15 °FSnow flurries. Passing clouds.22 mph76%30.09 "Hg5 mi
7:00 PM-15 °FSnow flurries. Partly cloudy.21 mph76%30.09 "Hg4 mi
6:00 PM-13 °FSnow flurries. Partly cloudy.22 mph76%30.08 "Hg6 mi
5:00 PM-11 °FSnow flurries. Passing clouds.22 mph76%30.07 "Hg5 mi
4:00 PM-9 °FSnow flurries. Partly cloudy.22 mph84%30.05 "Hg2 mi
3:00 PM-8 °FSnow flurries. Partly sunny.22 mph77%30.03 "Hg2 mi
2:00 PM-8 °FSnow flurries. Broken clouds.23 mph77%30.02 "Hg2 mi
Weather by CustomWeather, © 2014

See weather overviewHow to use our weather pages